TJS-15 AKM, 63299

Orbit data source: Space-Track

TJS-15 AKM, 63299 is space debris in GEO originally from a launch on Sun, 09 Mar 2025 UTC launched from the Xichang Space Center, China (XSC). Debris objects in space refer to the collection of defunct objects orbiting the Earth. Examples of debris include non-operational satellites, rocket bodies, and fragments generated from explosions, collisions, or faulty payload assembly.

Not visible in the next 10 days
Identifier
63299, 2025-045C
Orbit
GEO
Country
Flag of CNCN / PRC
Related business
Manufacturer
CAST
Mission
Defense Technology
Bus & Motor
Unknown
Mass
~500 kg wet, ~500 kg dry
Launch date (UTC)
2025-03-09 (8 months ago)
Launch vehicle
Unknown
Launch site
Xichang Space Center, China (XSC)
Object type
Payload
Rocket body
Debris
Shape & HBR
Box, 8.0 m
Radar Cross Section
1.500 m², Large (>1 m²)

Expand to show TLE details & history
Last TLE update: 2 days ago

TLE from 2 days ago
0 TJS-15 AKM
1 63299U 25045C   25307.89017868 -.00000175  00000-0  00000+0 0  9992
2 63299   0.6300  88.3850 0018504  68.9825 202.7532  0.98876209  2381
Epoch: 2025-11-03T21:21Z
TLE epoch observation values (Epoch: 2025-11-03T21:21:51.437Z)
Latitude
-0.60626°
Longitude
-3.84938°
Altitude
36,254.629 km
Speed
3.055 km/s
True Right ascension
00h 00m 00s
True Declination
0° 36' 20"
Sunlit
Object was in daylight at epoch
Visualization orbit readout
Latitude
Unknown
Longitude
Unknown
Altitude
Unknown
Speed
Unknown
Apparent Right ascension
Unknown
Apparent Declination
Unknown
Sunlit
N/A
Visualization observer readout
Local Sidereal Time
09:30:48
Azimuth
Unknown
Elevation
Unknown
Doppler factor
Unknown
Orbital elements
Apogee altitude
36,262.237 km
Perigee altitude
36,104.725 km
Semi-major axis
42,561.618 km
Eccentricity
0.00185
Inclination
0.63°
RAAN
88.385°
Arg. of periapsis
68.9825°
True anomaly
202.67137°
Mean anomaly
202.7532°
Eccentric anomaly
202.71227°
Mean motion
0.24718 °/min
Orbital period
1,456.42 mins
BSTAR
0
Loading maneuver chart data...
Computing Atmospheric mass density...
Loading historical data...
Loading historical data...
Loading historical data...
Loading historical data...
Loading historical data...
Loading historical data...
Loading historical data...
Other satellites on launch #45 in the year 2025 (2025-03-09 UTC)

Documentation

Showing up to 5 results
|